Regional Weather Roundup
Issued by NWS

Home | Current Version | Previous Version | Text Only | Print | Product List | Glossary On
Versions: 1 2 3 4 5 6 7 8 9 10 11 12 13 14 15 16 17 18 19 20 21 22 23 24 25 26 27 28 29 30 31 32 33 34 35 36 37 38 39 40 41 42 43 44 45 46 47 48 49 50
000
ASUS43 KDMX 312210
RWRIA

WEATHER ROUNDUP FOR IOWA
NATIONAL WEATHER SERVICE DES MOINES IA
500 PM CDT WED AUG 31 2016

NOTE: "FAIR" INDICATES FEW OR NO CLOUDS BELOW 12,000 FEET WITH NO
SIGNIFICANT WEATHER AND/OR OBSTRUCTIONS TO VISIBILITY.

* - THESE STATIONS ARE NOT NWS STATIONS...THUS NOT UNDER NWS
QUALITY CONTROL.  THEY ALSO DO NOT REPORT WEATHER SUCH
AS PRECIPITATION OR FOG.

IAZ001>003-012>014-020>022-031>034-043>046-312300-
   NORTHWEST IOWA

CITY           SKY/WX    TMP DP  RH WIND       PRES   REMARKS
CARROLL *      SUNNY     79  57  47 N12       30.15F HX  80
CHEROKEE *     SUNNY     79  60  51 NE6       30.17S HX  80
DENISON *      SUNNY     77  61  57 NE10      30.15S
LE MARS *      SUNNY     81  59  47 NE8       30.18S HAZE    HX  81
ORANGE CITY *  SUNNY     81  61  50 NE6       30.19S HX  81
SHELDON *      SUNNY     79  61  53 NE9       30.18S HX  80
SIOUX CITY     SUNNY     82  59  45 VRB6      30.16F HX  82
SPENCER        SUNNY     80  57  45 NE9       30.18F HX  80
STORM LAKE *   SUNNY     77  59  53 N9        30.18F
$$

IAZ055>058-069>071-079>083-090>094-312300-
   SOUTHWEST IOWA

CITY           SKY/WX    TMP DP  RH WIND       PRES   REMARKS
ATLANTIC *     SUNNY     79  61  53 N10       30.14S HX  80
AUDUBON *      SUNNY     79  59  50 N7        30.16F HX  80
CLARINDA *       N/A     79  63  57 MISG        N/A  HX  80
COUNCIL BLFS * SUNNY     79  61  53 NE8       30.15S HX  80
CRESTON *      SUNNY     79  61  53 NE8       30.14F HX  80
HARLAN  *      SUNNY     79  59  50 NE9       30.18S HX  80
LAMONI         CLOUDY    77  60  55 NE13      30.12S
RED OAK *      MOSUNNY   81  63  54 NE7G13    30.14S HX  82
SHENANDOAH *   MOSUNNY   79  64  61 NE7       30.13S HX  81
$$

IAZ047>049-059>061-072>074-084-312300-
   CENTRAL IOWA

CITY           SKY/WX    TMP DP  RH WIND       PRES   REMARKS
AMES           SUNNY     79  59  50 N12       30.13F HX  80
ANKENY *         N/A    N/A N/A N/A MISG        N/A
BOONE *        SUNNY     79  57  47 N10       30.14S HX  80
CHARITON *       N/A     77  59  53 NE12      30.11F
DES MOINES     PTSUNNY   81  56  42 NE12      30.11F HX  81
GRINNELL*      SUNNY     78  56  47 N9        30.12F
KNOXVILLE *    SUNNY     77  57  50 N10G17    30.10S
MARSHALLTOWN   SUNNY     77  58  51 N8        30.12F
NEWTON *       SUNNY     77  57  50 NE9       30.12S
PERRY *          N/A     79  56  45 N9G16     30.14F HX  80
$$

IAZ004>006-015-016-023>025-035-036-312300-
   NORTH CENTRAL IOWA

CITY           SKY/WX    TMP DP  RH WIND       PRES   REMARKS
ALGONA *       SUNNY     77  57  50 NE8       30.17F
ESTHERVILLE    SUNNY     77  59  53 N9        30.18F
FORT DODGE *   SUNNY     79  57  47 N6        30.16F HX  80
MASON CITY     SUNNY     78  56  46 N8        30.17F
FOREST CITY *    N/A     75  55  50 N9        30.17S
WEBSTER CITY * SUNNY     79  59  50 N8        30.13S HX  80
IOWA FALLS *     N/A     78  55  45 NE8       30.16S
$$

IAZ007>011-017>019-026>030-037>042-050>054-066-312300-
   NORTHEAST IOWA

CITY           SKY/WX    TMP DP  RH WIND       PRES   REMARKS
CEDAR RAPIDS   SUNNY     78  58  49 N14       30.10F
CHARLES CITY * SUNNY     77  54  44 N10       30.15F
CLINTON *      MOSUNNY   76  62  62 N10       30.09F
DECORAH *      SUNNY     75  54  46 N9        30.14S
DUBUQUE        SUNNY     75  55  49 NE12      30.12S
MONTICELLO *   SUNNY     77  55  47 N6        30.11S
OELWEIN *      SUNNY     75  52  43 N13       30.14S
WATERLOO       SUNNY     78  54  43 N15       30.12S
$$

IAZ064-065-067-068-078-312300-
   EAST CENTRAL IOWA

CITY           SKY/WX    TMP DP  RH WIND       PRES   REMARKS
DAVENPORT      MOSUNNY   77  60  55 NE12      30.09S
IOWA CITY      SUNNY     79  56  45 NE10      30.11S HX  80
MT. PLEASANT * MOSUNNY   80  60  50 N9        30.08S HX  81
MUSCATINE *    MOSUNNY   79  59  50 N10       30.08S HX  80
QUAD CITIES    MOSUNNY   79  58  48 N10       30.07S HX  80
$$

IAZ062-063-075>077-085>089-095>099-312300-
   SOUTHEAST IOWA

CITY           SKY/WX    TMP DP  RH WIND       PRES   REMARKS
BURLINGTON     CLOUDY    79  62  56 N14       30.07S HX  80
FAIRFIELD *    SUNNY     79  55  44 N13       30.09S
FORT MADISON * CLOUDY    79  64  61 N8        30.08S HX  81
KEOKUK *       CLOUDY    79  64  61 N8G15     30.06S HX  81
OSKALOOSA *      N/A     76  60  57 N10       30.11S
OTTUMWA        MOSUNNY   78  58  49 N13       30.09F
WASHINGTON *   SUNNY     77  59  53 N10G17    30.10S
$$

ABBREVIATIONS USED IN REMARKS
   TC - TEMPERATURES IN CELSIUS
  WCI - WIND CHILL INDEX
   HX - HEAT INDEX
  VSB - VISIBILITY
$$




USA.gov is the U.S. government's official web portal to all federal, state and local government web resources and services.